W9IF-4 Weather Reports


Display with metric or nautical units.
time (UTC)temp
F
wind
direction
speed
MPH
gust
MPH
rain 1hr
in
rain 24hr
in
rain mn
in
humidity
%
barometer
mb
20150505171634 66 252 0.0 0.0 0.00 0.00 0.00 1019.2
20150505171534 65 273 5.0 0.0 0.00 0.00 0.00 1019.1
20150505171434 65 269 4.0 0.0 0.00 0.00 0.00 1019.1
20150505171334 65 260 6.0 0.0 0.00 0.00 0.00 1019.1
20150505171234 65 266 9.0 0.0 0.00 0.00 0.00 1019.1
20150505171034 65 245 7.0 0.0 0.00 0.00 0.00 1019.1
20150505170934 64 278 8.0 0.0 0.00 0.00 0.00 1019.1
20150505170834 65 269 6.0 0.0 0.00 0.00 0.00 1019.1
20150505170734 65 309 6.0 0.0 0.00 0.00 0.00 1019.1
20150505170634 65 248 7.0 0.0 0.00 0.00 0.00 1019.2
20150505170534 65 293 7.0 0.0 0.00 0.00 0.00 1019.1
20150505170434 65 267 5.0 0.0 0.00 0.00 0.00 1019.1
20150505170334 65 239 6.0 0.0 0.00 0.00 0.00 1019.2
20150505170234 65 259 5.0 0.0 0.00 0.00 0.00 1019.1
20150505170134 65 280 6.0 0.0 0.00 0.00 0.00 1019.1
20150505170034 65 278 10.0 0.0 0.00 0.00 0.00 1019.1
20150505165934 65 250 8.0 0.0 0.00 0.00 0.00 1019.0
20150505165734 66 240 5.0 0.0 0.00 0.00 0.00 1019.0
20150505165534 64 263 7.0 0.0 0.00 0.00 0.00 1019.0
20150505165435 64 255 7.0 0.0 0.00 0.00 0.00 1019.0
20150505165334 64 274 8.0 0.0 0.00 0.00 0.00 1019.0
20150505165234 64 266 7.0 0.0 0.00 0.00 0.00 1019.0
20150505165134 64 242 7.0 0.0 0.00 0.00 0.00 1019.0
20150505164934 63 276 5.0 0.0 0.00 0.00 0.00 1019.1
20150505164835 64 250 9.0 0.0 0.00 0.00 0.00 1019.1
20150505164734 63 245 7.0 0.0 0.00 0.00 0.00 1019.0
20150505164634 64 252 10.0 0.0 0.00 0.00 0.00 1019.0
20150505164534 64 264 9.0 0.0 0.00 0.00 0.00 1019.1
20150505164434 64 256 9.0 0.0 0.00 0.00 0.00 1019.0
20150505164334 64 245 9.0 0.0 0.00 0.00 0.00 1019.0
20150505164234 63 238 6.0 0.0 0.00 0.00 0.00 1019.0
20150505164134 63 259 8.0 0.0 0.00 0.00 0.00 1019.1
20150505164034 64 256 9.0 0.0 0.00 0.00 0.00 1019.0
20150505163934 65 252 9.0 0.0 0.00 0.00 0.00 1019.1
20150505163834 64 245 5.0 0.0 0.00 0.00 0.00 1019.1
20150505163734 63 270 7.0 0.0 0.00 0.00 0.00 1019.1
20150505163536 63 252 9.0 0.0 0.00 0.00 0.00 1019.1
20150505163434 64 253 9.0 0.0 0.00 0.00 0.00 1019.0
20150505163334 65 253 10.0 0.0 0.00 0.00 0.00 1019.0
20150505163234 64 239 7.0 0.0 0.00 0.00 0.00 1019.0
20150505163134 64 257 9.0 0.0 0.00 0.00 0.00 1019.1
20150505163034 65 238 8.0 0.0 0.00 0.00 0.00 1019.0
20150505162934 65 240 6.0 0.0 0.00 0.00 0.00 1019.1
20150505162734 64 229 9.0 0.0 0.00 0.00 0.00 1019.1
20150505162634 64 235 8.0 0.0 0.00 0.00 0.00 1019.0
20150505162534 65 232 8.0 0.0 0.00 0.00 0.00 1019.0
20150505162434 65 236 9.0 0.0 0.00 0.00 0.00 1019.0
20150505162334 64 204 8.0 0.0 0.00 0.00 0.00 1019.0
20150505162234 65 264 6.0 0.0 0.00 0.00 0.00 1019.0
20150505162134 64 249 6.0 0.0 0.00 0.00 0.00 1019.0
20150505161934 64 232 7.0 0.0 0.00 0.00 0.00 1019.1
20150505161834 63 207 6.0 0.0 0.00 0.00 0.00 1019.1
20150505161734 64 246 7.0 0.0 0.00 0.00 0.00 1019.0
20150505161534 64 226 8.0 0.0 0.00 0.00 0.00 1019.1
20150505161434 63 232 8.0 0.0 0.00 0.00 0.00 1019.0
20150505161334 63 231 7.0 0.0 0.00 0.00 0.00 1019.0
20150505161234 62 260 7.0 0.0 0.00 0.00 0.00 1019.1
20150505161034 62 262 9.0 0.0 0.00 0.00 0.00 1019.1
20150505160734 62 252 8.0 0.0 0.00 0.00 0.00 1019.0
20150505160634 63 250 7.0 0.0 0.00 0.00 0.00 1019.0
20150505160534 63 252 9.0 0.0 0.00 0.00 0.00 1019.0
20150505160434 63 212 7.0 0.0 0.00 0.00 0.00 1019.0
20150505160334 62 240 5.0 0.0 0.00 0.00 0.00 1019.0
20150505160134 63 264 7.0 0.0 0.00 0.00 0.00 1019.0
20150505155935 63 257 8.0 0.0 0.00 0.00 0.00 1019.0
20150505155834 63 252 5.0 0.0 0.00 0.00 0.00 1019.0
20150505155734 64 239 9.0 0.0 0.00 0.00 0.00 1019.0
20150505155634 64 249 6.0 0.0 0.00 0.00 0.00 1019.0
20150505155535 63 231 8.0 0.0 0.00 0.00 0.00 1019.0
20150505155434 63 222 9.0 0.0 0.00 0.00 0.00 1019.0
20150505155334 62 239 8.0 0.0 0.00 0.00 0.00 1018.9
20150505155234 62 262 7.0 0.0 0.00 0.00 0.00 1018.9
20150505155134 63 255 9.0 0.0 0.00 0.00 0.00 1018.9
20150505154934 63 255 8.0 0.0 0.00 0.00 0.00 1019.0
20150505154834 63 221 9.0 0.0 0.00 0.00 0.00 1019.0
20150505154734 62 260 7.0 0.0 0.00 0.00 0.00 1019.0
20150505154634 63 253 9.0 0.0 0.00 0.00 0.00 1019.0
20150505154534 63 270 8.0 0.0 0.00 0.00 0.00 1019.0
20150505154434 63 249 10.0 0.0 0.00 0.00 0.00 1019.0
20150505154334 63 208 7.0 0.0 0.00 0.00 0.00 1019.0
20150505154234 62 240 8.0 0.0 0.00 0.00 0.00 1019.1
20150505154134 62 242 6.0 0.0 0.00 0.00 0.00 1019.0
20150505153934 62 238 8.0 0.0 0.00 0.00 0.00 1019.0
20150505153834 62 246 8.0 0.0 0.00 0.00 0.00 1019.0
20150505153734 62 259 8.0 0.0 0.00 0.00 0.00 1019.1
20150505153634 61 259 10.0 0.0 0.00 0.00 0.00 1019.1
20150505153534 62 248 9.0 0.0 0.00 0.00 0.00 1019.1
20150505153334 63 242 9.0 0.0 0.00 0.00 0.00 1019.0
20150505153234 63 246 8.0 0.0 0.00 0.00 0.00 1019.0
20150505153034 63 278 5.0 0.0 0.00 0.00 0.00 1019.0
20150505152934 62 229 6.0 0.0 0.00 0.00 0.00 1019.0
20150505152834 63 257 6.0 0.0 0.00 0.00 0.00 1019.0
20150505152734 62 242 7.0 0.0 0.00 0.00 0.00 1019.0
20150505152534 62 236 7.0 0.0 0.00 0.00 0.00 1019.0
20150505152434 61 260 8.0 0.0 0.00 0.00 0.00 1019.0
20150505152334 61 266 8.0 0.0 0.00 0.00 0.00 1019.0
20150505152234 61 264 10.0 0.0 0.00 0.00 0.00 1019.0
20150505152134 61 260 10.0 0.0 0.00 0.00 0.00 1019.0
20150505151834 62 262 7.0 0.0 0.00 0.00 0.00 1019.0
20150505151734 62 238 7.0 0.0 0.00 0.00 0.00 1019.0
20150505151634 62 245 7.0 0.0 0.00 0.00 0.00 1019.0
20150505151434 61 242 7.0 0.0 0.00 0.00 0.00 1019.0
20150505151234 61 262 7.0 0.0 0.00 0.00 0.00 1019.0
20150505151134 61 257 9.0 0.0 0.00 0.00 0.00 1019.0
20150505151034 61 256 9.0 0.0 0.00 0.00 0.00 1019.0
20150505150934 61 252 10.0 0.0 0.00 0.00 0.00 1019.0
20150505150833 61 259 10.0 0.0 0.00 0.00 0.00 1019.0
20150505150734 61 264 9.0 0.0 0.00 0.00 0.00 1019.0
20150505150634 61 260 9.0 0.0 0.00 0.00 0.00 1019.0
20150505150534 61 264 7.0 0.0 0.00 0.00 0.00 1019.0
20150505150434 61 264 6.0 0.0 0.00 0.00 0.00 1019.0
20150505150334 61 239 5.0 0.0 0.00 0.00 0.00 1019.0
20150505150234 61 262 7.0 0.0 0.00 0.00 0.00 1019.0
20150505150134 61 238 7.0 0.0 0.00 0.00 0.00 1019.0
20150505150034 61 263 7.0 0.0 0.00 0.00 0.00 1019.0
20150505145934 61 246 0.0 0.0 0.00 0.00 0.00 1019.0
20150505145834 61 246 0.0 0.0 0.00 0.00 0.00 1019.0
20150505145734 61 264 5.0 0.0 0.00 0.00 0.00 1019.0
20150505145633 61 236 0.0 0.0 0.00 0.00 0.00 1019.0
20150505145534 61 236 0.0 0.0 0.00 0.00 0.00 1019.0
20150505145334 60 236 0.0 0.0 0.00 0.00 0.00 1019.0
20150505145034 60 240 7.0 0.0 0.00 0.00 0.00 1019.0
20150505144934 60 215 0.0 0.0 0.00 0.00 0.00 1019.0
20150505144834 60 215 0.0 0.0 0.00 0.00 0.00 1019.0
20150505144734 60 215 0.0 0.0 0.00 0.00 0.00 1019.0
20150505144634 60 215 0.0 0.0 0.00 0.00 0.00 1019.0
20150505144534 60 215 0.0 0.0 0.00 0.00 0.00 1019.0
20150505144334 60 190 3.0 0.0 0.00 0.00 0.00 1019.0
20150505144134 60 184 0.0 0.0 0.00 0.00 0.00 1019.0
20150505143834 59 239 0.0 0.0 0.00 0.00 0.00 1019.0
20150505143734 59 246 0.0 0.0 0.00 0.00 0.00 1019.0
20150505143634 59 266 7.0 0.0 0.00 0.00 0.00 1019.0
20150505143534 60 255 8.0 0.0 0.00 0.00 0.00 1019.0
20150505143333 60 228 0.0 0.0 0.00 0.00 0.00 1019.0
20150505143235 59 228 0.0 0.0 0.00 0.00 0.00 1019.0
20150505143134 59 228 0.0 0.0 0.00 0.00 0.00 1019.0
20150505142734 59 224 5.0 0.0 0.00 0.00 0.00 1019.0
20150505142634 59 231 5.0 0.0 0.00 0.00 0.00 1019.0
20150505142534 59 248 8.0 0.0 0.00 0.00 0.00 1019.0
20150505142434 59 229 7.0 0.0 0.00 0.00 0.00 1019.0
20150505142333 59 238 8.0 0.0 0.00 0.00 0.00 1019.1
20150505142234 59 249 7.0 0.0 0.00 0.00 0.00 1019.0
20150505142134 59 232 0.0 0.0 0.00 0.00 0.00 1019.1
20150505141934 59 245 7.0 0.0 0.00 0.00 0.00 1019.1
20150505141833 59 248 6.0 0.0 0.00 0.00 0.00 1019.0
20150505141733 59 242 8.0 0.0 0.00 0.00 0.00 1019.1
20150505141634 59 217 7.0 0.0 0.00 0.00 0.00 1019.0
20150505141534 59 211 0.0 0.0 0.00 0.00 0.00 1019.1
20150505141434 59 211 0.0 0.0 0.00 0.00 0.00 1019.1
20150505141334 59 211 0.0 0.0 0.00 0.00 0.00 1019.1
20150505141234 59 259 5.0 0.0 0.00 0.00 0.00 1019.1
20150505141134 59 262 5.0 0.0 0.00 0.00 0.00 1019.1
20150505141034 59 249 3.0 0.0 0.00 0.00 0.00 1019.0
20150505140933 59 250 0.0 0.0 0.00 0.00 0.00 1019.0
20150505140734 59 260 6.0 0.0 0.00 0.00 0.00 1019.0
20150505140634 59 266 7.0 0.0 0.00 0.00 0.00 1019.0
20150505140533 59 260 8.0 0.0 0.00 0.00 0.00 1019.0
20150505140333 59 256 6.0 0.0 0.00 0.00 0.00 1019.0
20150505140234 59 266 6.0 0.0 0.00 0.00 0.00 1019.0
20150505140134 59 262 8.0 0.0 0.00 0.00 0.00 1019.0
20150505140033 59 250 8.0 0.0 0.00 0.00 0.00 1019.0
20150505135933 59 260 10.0 0.0 0.00 0.00 0.00 1019.0
20150505135833 59 249 10.0 0.0 0.00 0.00 0.00 1019.1
20150505135633 59 253 5.0 0.0 0.00 0.00 0.00 1019.0
20150505135434 59 242 10.0 0.0 0.00 0.00 0.00 1019.0
20150505135334 59 255 8.0 0.0 0.00 0.00 0.00 1019.0
20150505135133 59 252 0.0 0.0 0.00 0.00 0.00 1019.0
20150505135033 59 255 8.0 0.0 0.00 0.00 0.00 1019.0
20150505134935 59 269 5.0 0.0 0.00 0.00 0.00 1019.0
20150505134833 59 256 7.0 0.0 0.00 0.00 0.00 1018.9
20150505134733 59 262 9.0 0.0 0.00 0.00 0.00 1018.9
20150505134533 59 253 4.0 0.0 0.00 0.00 0.00 1018.9
20150505134433 59 253 3.0 0.0 0.00 0.00 0.00 1018.9
20150505134333 59 242 5.0 0.0 0.00 0.00 0.00 1018.9
20150505134234 59 256 7.0 0.0 0.00 0.00 0.00 1018.9
20150505133933 59 252 9.0 0.0 0.00 0.00 0.00 1018.9
20150505133833 59 253 6.0 0.0 0.00 0.00 0.00 1018.9
20150505133733 59 246 6.0 0.0 0.00 0.00 0.00 1018.9
20150505133633 59 221 7.0 0.0 0.00 0.00 0.00 1018.9
20150505133533 59 222 7.0 0.0 0.00 0.00 0.00 1018.9
20150505133433 58 240 8.0 0.0 0.00 0.00 0.00 1018.9
20150505133333 59 243 8.0 0.0 0.00 0.00 0.00 1018.9
20150505133234 59 233 9.0 0.0 0.00 0.00 0.00 1018.9
20150505133133 59 236 7.0 0.0 0.00 0.00 0.00 1018.9
20150505132933 59 255 9.0 0.0 0.00 0.00 0.00 1018.9
20150505132834 59 262 10.0 0.0 0.00 0.00 0.00 1018.9
20150505132733 59 249 9.0 0.0 0.00 0.00 0.00 1018.9
20150505132634 59 256 6.0 0.0 0.00 0.00 0.00 1018.9
20150505132534 59 242 7.0 0.0 0.00 0.00 0.00 1018.9
20150505132333 59 233 8.0 0.0 0.00 0.00 0.00 1018.9
20150505132034 59 233 9.0 0.0 0.00 0.00 0.00 1018.8
20150505131933 59 207 0.0 0.0 0.00 0.00 0.00 1018.8
20150505131733 59 207 0.0 0.0 0.00 0.00 0.00 1018.9